Time,TemperatureF,DewpointF,PressureIn,WindDirection,WindDirectionDegrees,WindSpeedMPH,WindSpeedGustMPH,Humidity,HourlyPrecipIn,Conditions,Clouds,dailyrainin,SoftwareType,DateUTC
2013-09-09 00:01:00,68.6,51.8,29.76,SE,132,0.0,0.0,55,0.00,,---,0.00,VWS V14.01,2013-09-09 07:01:00,
2013-09-09 00:06:00,68.4,52.1,29.76,SE,132,0.0,1.0,56,0.00,,---,0.00,VWS V14.01,2013-09-09 07:06:00,
2013-09-09 00:11:00,68.3,52.0,29.76,SE,132,0.0,0.0,56,0.00,,---,0.00,VWS V14.01,2013-09-09 07:11:00,
2013-09-09 00:16:00,68.1,52.3,29.76,SE,132,0.0,1.0,57,0.00,,---,0.00,VWS V14.01,2013-09-09 07:16:00,
2013-09-09 00:21:00,67.9,52.1,29.76,SE,140,0.0,0.0,57,0.00,,---,0.00,VWS V14.01,2013-09-09 07:21:00,
2013-09-09 00:26:00,67.7,51.9,29.76,SE,138,1.0,2.0,57,0.00,,---,0.00,VWS V14.01,2013-09-09 07:26:00,
2013-09-09 00:31:00,67.6,51.8,29.76,SE,135,0.0,0.0,57,0.00,,---,0.00,VWS V14.01,2013-09-09 07:31:00,
2013-09-09 00:36:00,67.4,51.7,29.76,SE,135,0.0,1.0,57,0.00,,---,0.00,VWS V14.01,2013-09-09 07:36:00,
2013-09-09 00:41:00,67.3,51.6,29.76,SE,135,0.0,0.0,57,0.00,,---,0.00,VWS V14.01,2013-09-09 07:41:00,
2013-09-09 00:46:00,67.1,51.8,29.76,SE,135,0.0,0.0,58,0.00,,---,0.00,VWS V14.01,2013-09-09 07:46:00,
2013-09-09 00:51:00,66.9,51.7,29.76,SE,135,0.0,0.0,58,0.00,,---,0.00,VWS V14.01,2013-09-09 07:51:00,
2013-09-09 00:56:00,66.7,51.5,29.76,SE,135,0.0,0.0,58,0.00,,---,0.00,VWS V14.01,2013-09-09 07:56:00,
2013-09-09 01:01:00,66.4,51.2,29.76,SE,135,0.0,0.0,58,0.00,,---,0.00,VWS V14.01,2013-09-09 08:01:00,
2013-09-09 01:06:00,66.3,51.1,29.76,SE,135,0.0,1.0,58,0.00,,---,0.00,VWS V14.01,2013-09-09 08:06:00,
2013-09-09 01:11:00,66.2,51.0,29.76,SE,135,0.0,0.0,58,0.00,,---,0.00,VWS V14.01,2013-09-09 08:11:00,
2013-09-09 01:16:00,66.0,50.8,29.76,SE,135,0.0,0.0,58,0.00,,---,0.00,VWS V14.01,2013-09-09 08:16:00,
2013-09-09 01:21:00,65.8,50.2,29.76,SE,135,0.0,0.0,57,0.00,,---,0.00,VWS V14.01,2013-09-09 08:21:00,
2013-09-09 01:26:00,65.6,50.0,29.76,SE,135,0.0,0.0,57,0.00,,---,0.00,VWS V14.01,2013-09-09 08:26:00,
2013-09-09 01:31:00,65.4,50.2,29.76,SE,135,0.0,0.0,58,0.00,,---,0.00,VWS V14.01,2013-09-09 08:31:00,
2013-09-09 01:36:00,65.3,50.2,29.76,SE,135,0.0,0.0,58,0.00,,---,0.00,VWS V14.01,2013-09-09 08:36:00,
2013-09-09 01:41:00,65.2,50.1,29.76,SE,135,0.0,0.0,58,0.00,,---,0.00,VWS V14.01,2013-09-09 08:41:00,
2013-09-09 01:46:00,65.1,50.0,29.76,SE,135,0.0,0.0,58,0.00,,---,0.00,VWS V14.01,2013-09-09 08:46:00,
2013-09-09 01:51:00,65.0,49.4,29.76,SE,135,0.0,0.0,57,0.00,,---,0.00,VWS V14.01,2013-09-09 08:51:00,
2013-09-09 01:56:00,64.9,49.3,29.75,SE,135,0.0,0.0,57,0.00,,---,0.00,VWS V14.01,2013-09-09 08:56:00,
2013-09-09 02:01:00,64.7,48.7,29.75,SE,135,0.0,0.0,56,0.00,,---,0.00,VWS V14.01,2013-09-09 09:01:00,
2013-09-09 02:06:00,64.4,48.8,29.75,SE,135,0.0,0.0,57,0.00,,---,0.00,VWS V14.01,2013-09-09 09:06:00,
2013-09-09 02:11:00,64.3,48.8,29.75,SE,135,0.0,0.0,57,0.00,,---,0.00,VWS V14.01,2013-09-09 09:11:00,
2013-09-09 02:16:00,64.1,49.0,29.75,SE,135,0.0,0.0,58,0.00,,---,0.00,VWS V14.01,2013-09-09 09:16:00,
2013-09-09 02:21:00,63.9,49.3,29.75,SE,135,0.0,0.0,59,0.00,,---,0.00,VWS V14.01,2013-09-09 09:21:00,
2013-09-09 02:26:00,63.6,49.0,29.75,SE,135,0.0,0.0,59,0.00,,---,0.00,VWS V14.01,2013-09-09 09:26:00,
2013-09-09 02:31:00,63.5,48.9,29.75,SE,135,0.0,0.0,59,0.00,,---,0.00,VWS V14.01,2013-09-09 09:31:00,
2013-09-09 02:36:00,63.3,48.7,29.75,SE,135,0.0,0.0,59,0.00,,---,0.00,VWS V14.01,2013-09-09 09:36:00,
2013-09-09 02:41:00,63.2,49.1,29.75,SE,135,0.0,0.0,60,0.00,,---,0.00,VWS V14.01,2013-09-09 09:41:00,
2013-09-09 02:46:00,63.1,49.0,29.75,SE,135,0.0,0.0,60,0.00,,---,0.00,VWS V14.01,2013-09-09 09:46:00,
2013-09-09 02:51:00,62.9,48.8,29.75,SE,135,0.0,0.0,60,0.00,,---,0.00,VWS V14.01,2013-09-09 09:51:00,
2013-09-09 02:56:00,62.8,48.3,29.75,SE,135,0.0,0.0,59,0.00,,---,0.00,VWS V14.01,2013-09-09 09:56:00,
2013-09-09 03:01:00,62.7,48.2,29.75,SE,135,0.0,0.0,59,0.00,,---,0.00,VWS V14.01,2013-09-09 10:01:00,
2013-09-09 03:06:00,62.6,48.5,29.75,SE,135,0.0,0.0,60,0.00,,---,0.00,VWS V14.01,2013-09-09 10:06:00,
2013-09-09 03:11:00,62.4,48.3,29.75,SE,135,0.0,0.0,60,0.00,,---,0.00,VWS V14.01,2013-09-09 10:11:00,
2013-09-09 03:16:00,62.3,48.2,29.74,SE,135,0.0,0.0,60,0.00,,---,0.00,VWS V14.01,2013-09-09 10:16:00,
2013-09-09 03:21:00,62.2,48.2,29.74,SE,135,0.0,0.0,60,0.00,,---,0.00,VWS V14.01,2013-09-09 10:21:00,
2013-09-09 03:26:00,62.1,48.5,29.74,SE,135,0.0,0.0,61,0.00,,---,0.00,VWS V14.01,2013-09-09 10:26:00,
2013-09-09 03:31:00,62.0,48.4,29.74,SE,135,0.0,0.0,61,0.00,,---,0.00,VWS V14.01,2013-09-09 10:31:00,
2013-09-09 03:36:00,61.8,48.2,29.74,SE,135,0.0,0.0,61,0.00,,---,0.00,VWS V14.01,2013-09-09 10:36:00,
2013-09-09 03:41:00,61.7,48.6,29.74,SE,135,0.0,0.0,62,0.00,,---,0.00,VWS V14.01,2013-09-09 10:41:00,
2013-09-09 03:46:00,61.6,48.5,29.74,SE,135,0.0,0.0,62,0.00,,---,0.00,VWS V14.01,2013-09-09 10:46:00,
2013-09-09 03:51:00,61.5,48.4,29.74,SE,135,0.0,0.0,62,0.00,,---,0.00,VWS V14.01,2013-09-09 10:51:00,
2013-09-09 03:56:00,61.5,47.9,29.74,SE,135,0.0,0.0,61,0.00,,---,0.00,VWS V14.01,2013-09-09 10:56:00,
2013-09-09 04:01:00,61.4,48.3,29.74,SE,135,0.0,0.0,62,0.00,,---,0.00,VWS V14.01,2013-09-09 11:01:00,
2013-09-09 04:06:00,61.4,48.3,29.74,SE,135,0.0,0.0,62,0.00,,---,0.00,VWS V14.01,2013-09-09 11:06:00,
2013-09-09 04:11:00,61.4,48.3,29.74,SE,135,0.0,0.0,62,0.00,,---,0.00,VWS V14.01,2013-09-09 11:11:00,
2013-09-09 04:16:00,61.4,48.3,29.74,SE,135,0.0,0.0,62,0.00,,---,0.00,VWS V14.01,2013-09-09 11:16:00,
2013-09-09 04:21:00,61.3,48.6,29.74,SE,135,0.0,0.0,63,0.00,,---,0.00,VWS V14.01,2013-09-09 11:21:00,
2013-09-09 04:26:00,61.3,48.6,29.74,SE,135,0.0,0.0,63,0.00,,---,0.00,VWS V14.01,2013-09-09 11:26:00,
2013-09-09 04:31:00,61.2,48.9,29.74,SE,135,0.0,0.0,64,0.00,,---,0.00,VWS V14.01,2013-09-09 11:31:00,
2013-09-09 04:36:00,61.3,49.0,29.74,SE,135,0.0,0.0,64,0.00,,---,0.00,VWS V14.01,2013-09-09 11:36:00,
2013-09-09 04:41:00,61.2,48.9,29.74,SE,135,0.0,0.0,64,0.00,,---,0.00,VWS V14.01,2013-09-09 11:41:00,
2013-09-09 04:46:00,61.1,48.8,29.75,SE,135,0.0,0.0,64,0.00,,---,0.00,VWS V14.01,2013-09-09 11:46:00,
2013-09-09 04:51:00,61.0,49.2,29.75,SE,135,0.0,0.0,65,0.00,,---,0.00,VWS V14.01,2013-09-09 11:51:00,
2013-09-09 04:56:00,60.9,49.1,29.74,SE,135,0.0,0.0,65,0.00,,---,0.00,VWS V14.01,2013-09-09 11:56:00,
2013-09-09 05:01:00,60.7,48.9,29.75,SE,135,0.0,0.0,65,0.00,,---,0.00,VWS V14.01,2013-09-09 12:01:00,
2013-09-09 05:06:00,60.5,48.7,29.75,SE,135,0.0,0.0,65,0.00,,---,0.00,VWS V14.01,2013-09-09 12:06:00,
2013-09-09 05:11:00,60.4,48.6,29.75,SE,135,0.0,0.0,65,0.00,,---,0.00,VWS V14.01,2013-09-09 12:11:00,
2013-09-09 05:16:00,60.3,49.3,29.75,SE,135,0.0,0.0,67,0.00,,---,0.00,VWS V14.01,2013-09-09 12:16:00,
2013-09-09 05:21:00,60.2,49.2,29.75,SE,135,0.0,0.0,67,0.00,,---,0.00,VWS V14.01,2013-09-09 12:21:00,
2013-09-09 05:26:00,60.1,49.1,29.75,SE,135,0.0,0.0,67,0.00,,---,0.00,VWS V14.01,2013-09-09 12:26:00,
2013-09-09 05:31:00,60.0,49.4,29.75,SE,135,0.0,0.0,68,0.00,,---,0.00,VWS V14.01,2013-09-09 12:31:00,
2013-09-09 05:36:00,59.9,49.3,29.75,SE,135,0.0,0.0,68,0.00,,---,0.00,VWS V14.01,2013-09-09 12:36:00,
2013-09-09 05:41:00,59.8,49.2,29.75,SE,135,0.0,0.0,68,0.00,,---,0.00,VWS V14.01,2013-09-09 12:41:00,
2013-09-09 05:46:00,59.6,49.0,29.75,SE,135,0.0,0.0,68,0.00,,---,0.00,VWS V14.01,2013-09-09 12:46:00,
2013-09-09 05:51:00,59.5,48.9,29.75,SE,135,0.0,0.0,68,0.00,,---,0.00,VWS V14.01,2013-09-09 12:51:00,
2013-09-09 05:56:00,59.3,48.8,29.75,SE,135,0.0,0.0,68,0.00,,---,0.00,VWS V14.01,2013-09-09 12:56:00,
2013-09-09 06:01:00,59.1,48.6,29.75,SE,135,0.0,0.0,68,0.00,,---,0.00,VWS V14.01,2013-09-09 13:01:00,
2013-09-09 06:06:00,59.0,48.9,29.75,SE,135,0.0,0.0,69,0.00,,---,0.00,VWS V14.01,2013-09-09 13:06:00,
2013-09-09 06:11:00,59.0,48.9,29.75,SE,135,0.0,0.0,69,0.00,,---,0.00,VWS V14.01,2013-09-09 13:11:00,
2013-09-09 06:16:00,59.0,48.9,29.75,SE,135,0.0,0.0,69,0.00,,---,0.00,VWS V14.01,2013-09-09 13:16:00,
2013-09-09 06:21:00,59.0,48.9,29.75,SE,135,0.0,0.0,69,0.00,,---,0.00,VWS V14.01,2013-09-09 13:21:00,
2013-09-09 06:26:00,59.0,49.2,29.75,SE,135,0.0,0.0,70,0.00,,---,0.00,VWS V14.01,2013-09-09 13:26:00,
2013-09-09 06:31:00,58.9,49.2,29.75,SE,135,0.0,0.0,70,0.00,,---,0.00,VWS V14.01,2013-09-09 13:31:00,
2013-09-09 06:36:00,59.0,49.2,29.76,SE,135,0.0,1.0,70,0.00,,---,0.00,VWS V14.01,2013-09-09 13:36:00,
2013-09-09 06:41:00,59.0,49.2,29.76,SE,135,0.0,1.0,70,0.00,,---,0.00,VWS V14.01,2013-09-09 13:41:00,
2013-09-09 06:46:00,59.0,49.6,29.76,SE,135,0.0,0.0,71,0.00,,---,0.00,VWS V14.01,2013-09-09 13:46:00,
2013-09-09 06:51:00,59.0,49.6,29.76,SE,135,0.0,0.0,71,0.00,,---,0.00,VWS V14.01,2013-09-09 13:51:00,
2013-09-09 06:56:00,59.0,49.6,29.76,SE,135,0.0,0.0,71,0.00,,---,0.00,VWS V14.01,2013-09-09 13:56:00,
2013-09-09 07:01:00,58.8,49.4,29.76,SE,135,0.0,0.0,71,0.00,,---,0.00,VWS V14.01,2013-09-09 14:01:00,
2013-09-09 07:06:00,58.7,49.7,29.76,SE,135,0.0,0.0,72,0.00,,---,0.00,VWS V14.01,2013-09-09 14:06:00,
2013-09-09 07:11:00,58.9,49.9,29.77,SE,135,0.0,0.0,72,0.00,,---,0.00,VWS V14.01,2013-09-09 14:11:00,
2013-09-09 07:16:00,59.0,50.0,29.77,SE,135,0.0,0.0,72,0.00,,---,0.00,VWS V14.01,2013-09-09 14:16:00,
2013-09-09 07:21:00,59.0,50.4,29.77,SE,135,0.0,0.0,73,0.00,,---,0.00,VWS V14.01,2013-09-09 14:21:00,
2013-09-09 07:26:00,59.4,50.8,29.77,SE,135,0.0,0.0,73,0.00,,---,0.00,VWS V14.01,2013-09-09 14:26:00,
2013-09-09 07:31:00,59.6,51.0,29.77,SE,135,0.0,0.0,73,0.00,,---,0.00,VWS V14.01,2013-09-09 14:31:00,
2013-09-09 07:36:00,59.7,51.4,29.77,SE,135,0.0,0.0,74,0.00,,---,0.00,VWS V14.01,2013-09-09 14:36:00,
2013-09-09 07:41:00,59.7,51.8,29.78,SE,135,0.0,0.0,75,0.00,,---,0.00,VWS V14.01,2013-09-09 14:41:00,
2013-09-09 07:46:00,59.9,51.6,29.78,NNE,15,0.0,1.0,74,0.00,,---,0.00,VWS V14.01,2013-09-09 14:46:00,
2013-09-09 07:51:00,60.2,52.3,29.78,North,11,0.0,1.0,75,0.00,,---,0.00,VWS V14.01,2013-09-09 14:51:00,
2013-09-09 07:56:00,60.7,52.7,29.78,North,9,0.0,1.0,75,0.00,,---,0.00,VWS V14.01,2013-09-09 14:56:00,
2013-09-09 08:01:00,61.4,52.7,29.78,NNW,343,0.0,1.0,73,0.00,,---,0.00,VWS V14.01,2013-09-09 15:01:00,
2013-09-09 08:06:00,61.9,53.2,29.79,NNW,343,0.0,0.0,73,0.00,,---,0.00,VWS V14.01,2013-09-09 15:06:00,
2013-09-09 08:11:00,62.8,53.7,29.78,North,355,0.0,0.0,72,0.00,,---,0.00,VWS V14.01,2013-09-09 15:11:00,
2013-09-09 08:16:00,64.2,54.2,29.78,North,355,0.0,0.0,70,0.00,,---,0.00,VWS V14.01,2013-09-09 15:16:00,
2013-09-09 08:21:00,65.6,54.8,29.78,North,355,0.0,1.0,68,0.00,,---,0.00,VWS V14.01,2013-09-09 15:21:00,
2013-09-09 08:26:00,66.9,55.2,29.78,North,355,0.0,0.0,66,0.00,,---,0.00,VWS V14.01,2013-09-09 15:26:00,
2013-09-09 08:31:00,67.9,55.3,29.78,North,355,0.0,1.0,64,0.00,,---,0.00,VWS V14.01,2013-09-09 15:31:00,
2013-09-09 08:36:00,68.9,55.4,29.78,ESE,102,0.0,1.0,62,0.00,,---,0.00,VWS V14.01,2013-09-09 15:36:00,
2013-09-09 08:41:00,70.0,55.5,29.78,ENE,76,0.0,1.0,60,0.00,,---,0.00,VWS V14.01,2013-09-09 15:41:00,
2013-09-09 08:46:00,71.0,55.5,29.78,ENE,76,0.0,0.0,58,0.00,,---,0.00,VWS V14.01,2013-09-09 15:46:00,
2013-09-09 08:51:00,71.8,56.2,29.78,ENE,59,2.0,2.0,58,0.00,,---,0.00,VWS V14.01,2013-09-09 15:51:00,
2013-09-09 08:56:00,72.6,56.5,29.78,East,90,0.0,1.0,57,0.00,,---,0.00,VWS V14.01,2013-09-09 15:56:00,
2013-09-09 09:01:00,73.2,56.1,29.77,East,84,1.0,1.0,55,0.00,,---,0.00,VWS V14.01,2013-09-09 16:01:00,
2013-09-09 09:06:00,73.9,56.7,29.78,East,96,0.0,2.0,55,0.00,,---,0.00,VWS V14.01,2013-09-09 16:06:00,
2013-09-09 09:11:00,74.5,57.3,29.77,East,92,0.0,2.0,55,0.00,,---,0.00,VWS V14.01,2013-09-09 16:11:00,
2013-09-09 09:16:00,75.1,57.3,29.77,ENE,63,1.0,2.0,54,0.00,,---,0.00,VWS V14.01,2013-09-09 16:16:00,
2013-09-09 09:21:00,75.6,57.8,29.77,NNE,30,2.0,2.0,54,0.00,,---,0.00,VWS V14.01,2013-09-09 16:21:00,
2013-09-09 09:26:00,76.2,58.4,29.78,East,80,0.0,2.0,54,0.00,,---,0.00,VWS V14.01,2013-09-09 16:26:00,
2013-09-09 09:31:00,76.8,58.4,29.78,East,96,0.0,2.0,53,0.00,,---,0.00,VWS V14.01,2013-09-09 16:31:00,
2013-09-09 09:36:00,77.5,58.5,29.78,NE,55,0.0,2.0,52,0.00,,---,0.00,VWS V14.01,2013-09-09 16:36:00,
2013-09-09 09:41:00,78.2,58.1,29.78,NE,54,0.0,3.0,50,0.00,,---,0.00,VWS V14.01,2013-09-09 16:41:00,
2013-09-09 09:46:00,78.8,58.0,29.78,NE,53,2.0,2.0,49,0.00,,---,0.00,VWS V14.01,2013-09-09 16:46:00,
2013-09-09 09:51:00,79.2,58.4,29.77,East,83,4.0,4.0,49,0.00,,---,0.00,VWS V14.01,2013-09-09 16:51:00,
2013-09-09 09:56:00,79.3,57.9,29.77,NE,34,1.0,3.0,48,0.00,,---,0.00,VWS V14.01,2013-09-09 16:56:00,
2013-09-09 10:01:00,79.6,57.6,29.78,East,84,2.0,4.0,47,0.00,,---,0.00,VWS V14.01,2013-09-09 17:01:00,
2013-09-09 10:06:00,80.0,58.0,29.77,ESE,116,4.0,4.0,47,0.00,,---,0.00,VWS V14.01,2013-09-09 17:06:00,
2013-09-09 10:11:00,80.3,57.7,29.77,ESE,109,0.0,4.0,46,0.00,,---,0.00,VWS V14.01,2013-09-09 17:11:00,
2013-09-09 10:16:00,81.0,57.7,29.77,East,92,4.0,4.0,45,0.00,,---,0.00,VWS V14.01,2013-09-09 17:16:00,
2013-09-09 10:21:00,81.4,57.4,29.77,East,88,0.0,4.0,44,0.00,,---,0.00,VWS V14.01,2013-09-09 17:21:00,
2013-09-09 10:26:00,81.6,57.6,29.77,SE,128,1.0,4.0,44,0.00,,---,0.00,VWS V14.01,2013-09-09 17:26:00,
2013-09-09 10:30:00,82.2,58.1,29.77,NE,40,0.0,4.0,44,0.00,,---,0.00,VWS V14.01,2013-09-09 17:30:00,
2013-09-09 10:35:00,83.1,58.3,29.77,East,85,0.0,2.0,43,0.00,,---,0.00,VWS V14.01,2013-09-09 17:35:00,
2013-09-09 10:40:00,84.2,58.0,29.76,ESE,111,2.0,3.0,41,0.00,,---,0.00,VWS V14.01,2013-09-09 17:40:00,
2013-09-09 10:45:00,84.8,57.8,29.77,East,83,1.0,2.0,40,0.00,,---,0.00,VWS V14.01,2013-09-09 17:45:00,
2013-09-09 10:50:00,85.2,57.5,29.76,NE,38,2.0,3.0,39,0.00,,---,0.00,VWS V14.01,2013-09-09 17:50:00,
2013-09-09 10:55:00,86.1,57.5,29.76,ENE,76,0.0,3.0,38,0.00,,---,0.00,VWS V14.01,2013-09-09 17:55:00,
2013-09-09 11:00:00,86.9,57.5,29.76,East,82,1.0,3.0,37,0.00,,---,0.00,VWS V14.01,2013-09-09 18:00:00,
2013-09-09 11:05:00,87.8,57.5,29.76,NE,36,1.0,3.0,36,0.00,,---,0.00,VWS V14.01,2013-09-09 18:05:00,
2013-09-09 11:10:00,89.0,57.0,29.76,East,87,0.0,3.0,34,0.00,,---,0.00,VWS V14.01,2013-09-09 18:10:00,
2013-09-09 11:15:00,89.8,56.0,29.76,North,360,1.0,2.0,32,0.00,,---,0.00,VWS V14.01,2013-09-09 18:15:00,
2013-09-09 11:20:00,90.2,56.4,29.76,NNE,16,0.0,2.0,32,0.00,,---,0.00,VWS V14.01,2013-09-09 18:20:00,
2013-09-09 11:25:00,90.7,55.0,29.75,NNE,29,0.0,3.0,30,0.00,,---,0.00,VWS V14.01,2013-09-09 18:25:00,
2013-09-09 11:30:00,91.2,55.5,29.75,NNW,348,0.0,4.0,30,0.00,,---,0.00,VWS V14.01,2013-09-09 18:30:00,
2013-09-09 11:35:00,91.8,56.0,29.75,North,355,0.0,1.0,30,0.00,,---,0.00,VWS V14.01,2013-09-09 18:35:00,
2013-09-09 11:40:00,91.9,56.1,29.75,North,360,0.0,2.0,30,0.00,,---,0.00,VWS V14.01,2013-09-09 18:40:00,
2013-09-09 11:45:00,92.6,55.7,29.75,WNW,294,3.0,4.0,29,0.00,,---,0.00,VWS V14.01,2013-09-09 18:45:00,
2013-09-09 11:50:00,92.9,56.0,29.75,North,360,0.0,4.0,29,0.00,,---,0.00,VWS V14.01,2013-09-09 18:50:00,
2013-09-09 11:55:00,93.5,55.5,29.74,North,360,0.0,4.0,28,0.00,,---,0.00,VWS V14.01,2013-09-09 18:55:00,
2013-09-09 12:00:00,94.3,58.1,29.74,NE,44,0.0,4.0,30,0.00,,---,0.00,VWS V14.01,2013-09-09 19:00:00,
2013-09-09 12:05:00,94.7,56.6,29.74,NE,36,0.0,2.0,28,0.00,,---,0.00,VWS V14.01,2013-09-09 19:05:00,
2013-09-09 12:10:00,95.1,55.9,29.74,ENE,59,0.0,3.0,27,0.00,,---,0.00,VWS V14.01,2013-09-09 19:10:00,
2013-09-09 12:15:00,95.3,57.1,29.74,ENE,69,1.0,2.0,28,0.00,,---,0.00,VWS V14.01,2013-09-09 19:15:00,
2013-09-09 12:20:00,95.8,56.5,29.74,East,99,1.0,2.0,27,0.00,,---,0.00,VWS V14.01,2013-09-09 19:20:00,
2013-09-09 12:25:00,96.0,56.7,29.74,WNW,295,0.0,2.0,27,0.00,,---,0.00,VWS V14.01,2013-09-09 19:25:00,
2013-09-09 12:30:00,96.1,55.7,29.74,West,260,1.0,2.0,26,0.00,,---,0.00,VWS V14.01,2013-09-09 19:30:00,
2013-09-09 12:35:00,96.1,54.6,29.73,NNW,329,0.0,2.0,25,0.00,,---,0.00,VWS V14.01,2013-09-09 19:35:00,
2013-09-09 12:40:00,96.0,54.5,29.73,WNW,303,0.0,3.0,25,0.00,,---,0.00,VWS V14.01,2013-09-09 19:40:00,
2013-09-09 12:45:00,96.4,54.9,29.73,North,355,0.0,3.0,25,0.00,,---,0.00,VWS V14.01,2013-09-09 19:45:00,
2013-09-09 12:50:00,96.6,53.9,29.73,NW,308,0.0,3.0,24,0.00,,---,0.00,VWS V14.01,2013-09-09 19:50:00,
2013-09-09 12:55:00,96.8,52.9,29.73,ENE,66,0.0,2.0,23,0.00,,---,0.00,VWS V14.01,2013-09-09 19:55:00,
2013-09-09 13:00:00,97.5,53.5,29.73,NW,319,0.0,3.0,23,0.00,,---,0.00,VWS V14.01,2013-09-09 20:00:00,
2013-09-09 13:05:00,98.0,51.5,29.72,NNW,331,0.0,5.0,21,0.00,,---,0.00,VWS V14.01,2013-09-09 20:05:00,
2013-09-09 13:10:00,98.2,51.6,29.72,NNE,15,1.0,5.0,21,0.00,,---,0.00,VWS V14.01,2013-09-09 20:10:00,
2013-09-09 13:15:00,98.5,51.9,29.72,WNW,298,0.0,3.0,21,0.00,,---,0.00,VWS V14.01,2013-09-09 20:15:00,
2013-09-09 13:20:00,98.8,49.4,29.72,NE,42,4.0,4.0,19,0.00,,---,0.00,VWS V14.01,2013-09-09 20:20:00,
2013-09-09 13:25:00,99.2,48.3,29.71,NW,326,0.0,3.0,18,0.00,,---,0.00,VWS V14.01,2013-09-09 20:25:00,
2013-09-09 13:30:00,99.4,49.9,29.71,WNW,291,0.0,3.0,19,0.00,,---,0.00,VWS V14.01,2013-09-09 20:30:00,
2013-09-09 13:35:00,99.7,51.5,29.71,NNW,332,0.0,2.0,20,0.00,,---,0.00,VWS V14.01,2013-09-09 20:35:00,
2013-09-09 13:40:00,100.0,50.4,29.70,NNE,27,2.0,3.0,19,0.00,,---,0.00,VWS V14.01,2013-09-09 20:40:00,
2013-09-09 13:45:00,99.9,51.7,29.70,NNW,340,1.0,4.0,20,0.00,,---,0.00,VWS V14.01,2013-09-09 20:45:00,
2013-09-09 13:50:00,99.4,51.3,29.70,East,92,1.0,4.0,20,0.00,,---,0.00,VWS V14.01,2013-09-09 20:50:00,
2013-09-09 13:55:00,99.8,51.6,29.70,NNW,332,1.0,2.0,20,0.00,,---,0.00,VWS V14.01,2013-09-09 20:55:00,
2013-09-09 14:00:00,100.0,53.1,29.70,South,171,1.0,3.0,21,0.00,,---,0.00,VWS V14.01,2013-09-09 21:00:00,
2013-09-09 14:05:00,99.8,54.2,29.70,WSW,249,0.0,5.0,22,0.00,,---,0.00,VWS V14.01,2013-09-09 21:05:00,
2013-09-09 14:10:00,99.8,55.4,29.69,West,265,1.0,5.0,23,0.00,,---,0.00,VWS V14.01,2013-09-09 21:10:00,
2013-09-09 14:15:00,100.1,56.8,29.69,NW,325,0.0,6.0,24,0.00,,---,0.00,VWS V14.01,2013-09-09 21:15:00,
2013-09-09 14:20:00,100.1,58.0,29.69,NNE,24,0.0,6.0,25,0.00,,---,0.00,VWS V14.01,2013-09-09 21:20:00,
2013-09-09 14:25:00,100.4,58.2,29.70,NE,34,1.0,4.0,25,0.00,,---,0.00,VWS V14.01,2013-09-09 21:25:00,
2013-09-09 14:30:00,100.6,58.4,29.69,NE,41,1.0,4.0,25,0.00,,---,0.00,VWS V14.01,2013-09-09 21:30:00,
2013-09-09 14:35:00,100.1,58.0,29.69,NW,320,0.0,9.0,25,0.00,,---,0.00,VWS V14.01,2013-09-09 21:35:00,
2013-09-09 14:40:00,100.0,57.9,29.69,NW,323,3.0,9.0,25,0.00,,---,0.00,VWS V14.01,2013-09-09 21:40:00,
2013-09-09 14:45:00,100.1,56.8,29.69,NNE,17,0.0,3.0,24,0.00,,---,0.00,VWS V14.01,2013-09-09 21:45:00,
2013-09-09 14:50:00,100.1,58.0,29.69,North,355,0.0,4.0,25,0.00,,---,0.00,VWS V14.01,2013-09-09 21:50:00,
2013-09-09 14:55:00,100.2,58.1,29.69,NNE,18,2.0,4.0,25,0.00,,---,0.00,VWS V14.01,2013-09-09 21:55:00,
2013-09-09 15:00:00,100.5,57.2,29.68,ENE,73,0.0,4.0,24,0.00,,---,0.00,VWS V14.01,2013-09-09 22:00:00,
2013-09-09 15:05:00,100.9,57.5,29.68,WNW,294,0.0,5.0,24,0.00,,---,0.00,VWS V14.01,2013-09-09 22:05:00,
2013-09-09 15:10:00,100.8,56.2,29.68,West,259,0.0,5.0,23,0.00,,---,0.00,VWS V14.01,2013-09-09 22:10:00,
2013-09-09 15:15:00,100.5,54.8,29.67,WSW,242,3.0,3.0,22,0.00,,---,0.00,VWS V14.01,2013-09-09 22:15:00,
2013-09-09 15:20:00,100.2,53.3,29.68,West,268,5.0,8.0,21,0.00,,---,0.00,VWS V14.01,2013-09-09 22:20:00,
2013-09-09 15:25:00,100.2,51.9,29.67,NW,325,2.0,9.0,20,0.00,,---,0.00,VWS V14.01,2013-09-09 22:25:00,
2013-09-09 15:30:00,100.0,51.8,29.67,West,264,0.0,9.0,20,0.00,,---,0.00,VWS V14.01,2013-09-09 22:30:00,
2013-09-09 15:35:00,99.8,51.6,29.67,WSW,252,7.0,7.0,20,0.00,,---,0.00,VWS V14.01,2013-09-09 22:35:00,
2013-09-09 15:40:00,99.6,54.0,29.67,SE,141,0.0,7.0,22,0.00,,---,0.00,VWS V14.01,2013-09-09 22:40:00,
2013-09-09 15:45:00,99.5,56.3,29.67,WSW,246,2.0,5.0,24,0.00,,---,0.00,VWS V14.01,2013-09-09 22:45:00,
2013-09-09 15:50:00,99.3,55.0,29.67,West,267,1.0,9.0,23,0.00,,---,0.00,VWS V14.01,2013-09-09 22:50:00,
2013-09-09 15:55:00,98.7,54.5,29.67,WNW,286,1.0,4.0,23,0.00,,---,0.00,VWS V14.01,2013-09-09 22:55:00,
2013-09-09 16:00:00,98.5,54.3,29.67,SW,221,0.0,4.0,23,0.00,,---,0.00,VWS V14.01,2013-09-09 23:00:00,
2013-09-09 16:05:00,98.3,53.0,29.67,SW,233,0.0,6.0,22,0.00,,---,0.00,VWS V14.01,2013-09-09 23:05:00,
2013-09-09 16:10:00,98.1,52.8,29.67,WNW,298,2.0,9.0,22,0.00,,---,0.00,VWS V14.01,2013-09-09 23:10:00,
2013-09-09 16:15:00,97.8,52.5,29.67,East,81,0.0,7.0,22,0.00,,---,0.00,VWS V14.01,2013-09-09 23:15:00,
2013-09-09 16:20:00,97.2,52.0,29.67,West,267,3.0,7.0,22,0.00,,---,0.00,VWS V14.01,2013-09-09 23:20:00,
2013-09-09 16:25:00,96.7,51.6,29.67,WSW,249,6.0,10.0,22,0.00,,---,0.00,VWS V14.01,2013-09-09 23:25:00,
2013-09-09 16:30:00,96.2,51.2,29.67,West,265,0.0,10.0,22,0.00,,---,0.00,VWS V14.01,2013-09-09 23:30:00,
2013-09-09 16:35:00,95.9,52.2,29.67,NE,38,0.0,4.0,23,0.00,,---,0.00,VWS V14.01,2013-09-09 23:35:00,
2013-09-09 16:40:00,95.7,52.0,29.67,SSW,194,0.0,6.0,23,0.00,,---,0.00,VWS V14.01,2013-09-09 23:40:00,
2013-09-09 16:45:00,95.3,51.7,29.67,SW,220,3.0,5.0,23,0.00,,---,0.00,VWS V14.01,2013-09-09 23:45:00,
2013-09-09 16:50:00,94.8,50.1,29.67,WSW,257,2.0,6.0,22,0.00,,---,0.00,VWS V14.01,2013-09-09 23:50:00,
2013-09-09 16:55:00,94.5,51.0,29.67,West,279,0.0,5.0,23,0.00,,---,0.00,VWS V14.01,2013-09-09 23:55:00,
2013-09-09 17:00:00,94.4,50.9,29.68,SW,225,0.0,6.0,23,0.00,,---,0.00,VWS V14.01,2013-09-10 00:00:00,
2013-09-09 17:05:00,94.2,50.8,29.68,West,265,1.0,8.0,23,0.00,,---,0.00,VWS V14.01,2013-09-10 00:05:00,
2013-09-09 17:10:00,94.1,50.7,29.68,SW,217,0.0,8.0,23,0.00,,---,0.00,VWS V14.01,2013-09-10 00:10:00,
2013-09-09 17:15:00,94.0,50.6,29.68,WNW,292,0.0,3.0,23,0.00,,---,0.00,VWS V14.01,2013-09-10 00:15:00,
2013-09-09 17:20:00,93.9,50.5,29.67,West,279,1.0,4.0,23,0.00,,---,0.00,VWS V14.01,2013-09-10 00:20:00,
2013-09-09 17:25:00,93.9,50.5,29.67,West,261,0.0,6.0,23,0.00,,---,0.00,VWS V14.01,2013-09-10 00:25:00,
2013-09-09 17:30:00,93.8,50.4,29.67,West,267,0.0,6.0,23,0.00,,---,0.00,VWS V14.01,2013-09-10 00:30:00,
2013-09-09 17:35:00,93.6,50.3,29.67,West,267,0.0,1.0,23,0.00,,---,0.00,VWS V14.01,2013-09-10 00:35:00,
2013-09-09 17:40:00,93.5,50.2,29.67,West,263,0.0,1.0,23,0.00,,---,0.00,VWS V14.01,2013-09-10 00:40:00,
2013-09-09 17:45:00,93.5,50.2,29.67,West,261,0.0,0.0,23,0.00,,---,0.00,VWS V14.01,2013-09-10 00:45:00,
2013-09-09 17:50:00,93.2,51.1,29.67,SSW,211,0.0,1.0,24,0.00,,---,0.00,VWS V14.01,2013-09-10 00:50:00,
2013-09-09 17:55:00,92.9,49.7,29.67,SSW,196,0.0,1.0,23,0.00,,---,0.00,VWS V14.01,2013-09-10 00:55:00,
2013-09-09 18:00:00,92.7,49.5,29.67,SSW,196,0.0,1.0,23,0.00,,---,0.00,VWS V14.01,2013-09-10 01:00:00,
2013-09-09 18:05:00,92.4,50.4,29.67,SSW,196,0.0,1.0,24,0.00,,---,0.00,VWS V14.01,2013-09-10 01:05:00,
2013-09-09 18:10:00,92.1,49.0,29.67,SSW,196,0.0,1.0,23,0.00,,---,0.00,VWS V14.01,2013-09-10 01:10:00,
2013-09-09 18:15:00,91.8,49.9,29.67,SSW,196,0.0,0.0,24,0.00,,---,0.00,VWS V14.01,2013-09-10 01:15:00,
2013-09-09 18:20:00,91.6,49.7,29.66,SSW,206,0.0,1.0,24,0.00,,---,0.00,VWS V14.01,2013-09-10 01:20:00,
2013-09-09 18:25:00,91.2,50.5,29.67,SSW,206,0.0,1.0,25,0.00,,---,0.00,VWS V14.01,2013-09-10 01:25:00,
2013-09-09 18:30:00,90.7,50.1,29.66,SSW,206,0.0,1.0,25,0.00,,---,0.00,VWS V14.01,2013-09-10 01:30:00,
2013-09-09 18:35:00,90.2,49.7,29.66,WNW,286,4.0,4.0,25,0.00,,---,0.00,VWS V14.01,2013-09-10 01:35:00,
2013-09-09 18:40:00,89.7,50.3,29.66,WSW,252,0.0,5.0,26,0.00,,---,0.00,VWS V14.01,2013-09-10 01:40:00,
2013-09-09 18:45:00,89.3,50.0,29.66,WNW,290,0.0,1.0,26,0.00,,---,0.00,VWS V14.01,2013-09-10 01:45:00,
2013-09-09 18:50:00,88.8,49.5,29.66,WNW,290,0.0,1.0,26,0.00,,---,0.00,VWS V14.01,2013-09-10 01:50:00,
2013-09-09 18:55:00,88.2,49.0,29.66,WNW,290,0.0,0.0,26,0.00,,---,0.00,VWS V14.01,2013-09-10 01:55:00,
2013-09-09 19:00:00,87.7,48.6,29.66,WNW,290,0.0,0.0,26,0.00,,---,0.00,VWS V14.01,2013-09-10 02:00:00,
2013-09-09 19:05:00,87.1,50.1,29.66,WNW,290,0.0,0.0,28,0.00,,---,0.00,VWS V14.01,2013-09-10 02:05:00,
2013-09-09 19:10:00,86.3,49.4,29.67,WNW,290,0.0,0.0,28,0.00,,---,0.00,VWS V14.01,2013-09-10 02:10:00,
2013-09-09 19:15:00,85.5,48.7,29.66,WNW,290,2.0,2.0,28,0.00,,---,0.00,VWS V14.01,2013-09-10 02:15:00,
2013-09-09 19:20:00,84.9,49.1,29.66,North,5,0.0,2.0,29,0.00,,---,0.00,VWS V14.01,2013-09-10 02:20:00,
2013-09-09 19:25:00,84.1,48.5,29.67,North,5,0.0,0.0,29,0.00,,---,0.00,VWS V14.01,2013-09-10 02:25:00,
2013-09-09 19:30:00,83.4,48.8,29.67,North,5,1.0,1.0,30,0.00,,---,0.00,VWS V14.01,2013-09-10 02:30:00,
2013-09-09 19:35:00,82.6,48.9,29.66,North,5,0.0,0.0,31,0.00,,---,0.00,VWS V14.01,2013-09-10 02:35:00,
2013-09-09 19:40:00,81.9,48.3,29.67,North,5,0.0,0.0,31,0.00,,---,0.00,VWS V14.01,2013-09-10 02:40:00,
2013-09-09 19:45:00,81.2,48.6,29.67,North,5,0.0,0.0,32,0.00,,---,0.00,VWS V14.01,2013-09-10 02:45:00,
2013-09-09 19:50:00,80.7,47.3,29.67,NE,36,0.0,1.0,31,0.00,,---,0.00,VWS V14.01,2013-09-10 02:50:00,
2013-09-09 19:55:00,80.0,47.5,29.68,NE,37,0.0,1.0,32,0.00,,---,0.00,VWS V14.01,2013-09-10 02:55:00,
2013-09-09 20:00:00,79.4,47.0,29.68,ENE,71,0.0,1.0,32,0.00,,---,0.00,VWS V14.01,2013-09-10 03:00:00,
2013-09-09 20:05:00,78.8,47.3,29.67,East,98,0.0,1.0,33,0.00,,---,0.00,VWS V14.01,2013-09-10 03:05:00,
2013-09-09 20:10:00,78.4,47.0,29.68,East,98,0.0,1.0,33,0.00,,---,0.00,VWS V14.01,2013-09-10 03:10:00,
2013-09-09 20:15:00,78.0,46.6,29.68,ESE,121,0.0,2.0,33,0.00,,---,0.00,VWS V14.01,2013-09-10 03:15:00,
2013-09-09 20:20:00,77.5,46.2,29.67,ESE,121,1.0,2.0,33,0.00,,---,0.00,VWS V14.01,2013-09-10 03:20:00,
2013-09-09 20:25:00,76.9,46.4,29.68,ESE,121,0.0,0.0,34,0.00,,---,0.00,VWS V14.01,2013-09-10 03:25:00,
2013-09-09 20:30:00,76.3,46.7,29.68,ESE,121,0.0,0.0,35,0.00,,---,0.00,VWS V14.01,2013-09-10 03:30:00,
2013-09-09 20:35:00,75.7,49.0,29.68,ESE,121,0.0,2.0,39,0.00,,---,0.00,VWS V14.01,2013-09-10 03:35:00,
2013-09-09 20:40:00,75.2,48.6,29.68,ESE,121,0.0,3.0,39,0.00,,---,0.00,VWS V14.01,2013-09-10 03:40:00,
2013-09-09 20:45:00,74.8,50.2,29.69,ESE,119,0.0,4.0,42,0.00,,---,0.00,VWS V14.01,2013-09-10 03:45:00,
2013-09-09 20:50:00,74.5,50.6,29.69,ESE,119,0.0,4.0,43,0.00,,---,0.00,VWS V14.01,2013-09-10 03:50:00,
2013-09-09 20:55:00,74.2,50.9,29.69,ESE,119,1.0,2.0,44,0.00,,---,0.00,VWS V14.01,2013-09-10 03:55:00,
2013-09-09 21:00:00,73.9,51.8,29.69,SE,125,4.0,4.0,46,0.00,,---,0.00,VWS V14.01,2013-09-10 04:00:00,
2013-09-09 21:01:00,73.8,51.8,29.69,ESE,117,0.0,4.0,46,0.00,,---,0.00,VWS V14.01,2013-09-10 04:01:00,
2013-09-09 21:02:00,73.8,52.3,29.69,SE,129,3.0,4.0,47,0.00,,---,0.00,VWS V14.01,2013-09-10 04:02:00,
2013-09-09 21:07:00,73.4,52.0,29.69,ESE,105,0.0,4.0,47,0.00,,---,0.00,VWS V14.01,2013-09-10 04:07:00,
2013-09-09 21:12:00,73.1,52.8,29.69,SE,132,0.0,3.0,49,0.00,,---,0.00,VWS V14.01,2013-09-10 04:12:00,
2013-09-09 21:17:00,72.7,53.0,29.69,SE,133,0.0,3.0,50,0.00,,---,0.00,VWS V14.01,2013-09-10 04:17:00,
2013-09-09 21:22:00,72.4,53.3,29.69,SE,132,0.0,0.0,51,0.00,,---,0.00,VWS V14.01,2013-09-10 04:22:00,
2013-09-09 21:27:00,72.1,53.5,29.69,SE,128,0.0,4.0,52,0.00,,---,0.00,VWS V14.01,2013-09-10 04:27:00,
2013-09-09 21:32:00,71.8,53.8,29.69,SE,128,2.0,4.0,53,0.00,,---,0.00,VWS V14.01,2013-09-10 04:32:00,
2013-09-09 21:37:00,71.5,53.5,29.70,ESE,115,0.0,4.0,53,0.00,,---,0.00,VWS V14.01,2013-09-10 04:37:00,
2013-09-09 21:42:00,71.3,53.8,29.70,ENE,72,0.0,0.0,54,0.00,,---,0.00,VWS V14.01,2013-09-10 04:42:00,
2013-09-09 21:47:00,71.1,53.6,29.69,ESE,108,3.0,3.0,54,0.00,,---,0.00,VWS V14.01,2013-09-10 04:47:00,
2013-09-09 21:52:00,70.8,53.8,29.70,East,82,2.0,4.0,55,0.00,,---,0.00,VWS V14.01,2013-09-10 04:52:00,
2013-09-09 21:57:00,70.6,53.7,29.70,ESE,112,0.0,6.0,55,0.00,,---,0.00,VWS V14.01,2013-09-10 04:57:00,
2013-09-09 22:02:00,70.4,54.0,29.70,ESE,112,0.0,0.0,56,0.00,,---,0.00,VWS V14.01,2013-09-10 05:02:00,
2013-09-09 22:07:00,70.2,53.8,29.70,ESE,116,0.0,3.0,56,0.00,,---,0.00,VWS V14.01,2013-09-10 05:07:00,
2013-09-09 22:12:00,70.0,54.1,29.70,ESE,116,0.0,0.0,57,0.00,,---,0.00,VWS V14.01,2013-09-10 05:12:00,
2013-09-09 22:17:00,69.8,53.9,29.70,ENE,73,0.0,2.0,57,0.00,,---,0.00,VWS V14.01,2013-09-10 05:17:00,
2013-09-09 22:22:00,69.6,53.7,29.70,ENE,74,0.0,0.0,57,0.00,,---,0.00,VWS V14.01,2013-09-10 05:22:00,
2013-09-09 22:27:00,69.4,54.0,29.70,ENE,74,0.0,0.0,58,0.00,,---,0.00,VWS V14.01,2013-09-10 05:27:00,
2013-09-09 22:32:00,69.2,53.8,29.70,ENE,74,0.0,0.0,58,0.00,,---,0.00,VWS V14.01,2013-09-10 05:32:00,
2013-09-09 22:37:00,68.9,54.0,29.71,ENE,74,0.0,0.0,59,0.00,,---,0.00,VWS V14.01,2013-09-10 05:37:00,
2013-09-09 22:42:00,68.6,53.7,29.71,ENE,74,0.0,0.0,59,0.00,,---,0.00,VWS V14.01,2013-09-10 05:42:00,
2013-09-09 22:47:00,68.3,53.9,29.70,ENE,74,0.0,0.0,60,0.00,,---,0.00,VWS V14.01,2013-09-10 05:47:00,
2013-09-09 22:52:00,67.9,53.5,29.70,ENE,74,0.0,0.0,60,0.00,,---,0.00,VWS V14.01,2013-09-10 05:52:00,
2013-09-09 22:57:00,67.7,53.8,29.70,ENE,74,0.0,0.0,61,0.00,,---,0.00,VWS V14.01,2013-09-10 05:57:00,
2013-09-09 23:02:00,67.4,53.5,29.70,ENE,74,0.0,0.0,61,0.00,,---,0.00,VWS V14.01,2013-09-10 06:02:00,
2013-09-09 23:07:00,67.2,53.3,29.70,ENE,74,0.0,0.0,61,0.00,,---,0.00,VWS V14.01,2013-09-10 06:07:00,
2013-09-09 23:12:00,66.9,53.5,29.70,ENE,74,0.0,0.0,62,0.00,,---,0.00,VWS V14.01,2013-09-10 06:12:00,
2013-09-09 23:17:00,66.6,53.2,29.70,ENE,74,0.0,0.0,62,0.00,,---,0.00,VWS V14.01,2013-09-10 06:17:00,
2013-09-09 23:22:00,66.4,53.4,29.70,ENE,74,0.0,0.0,63,0.00,,---,0.00,VWS V14.01,2013-09-10 06:22:00,
2013-09-09 23:27:00,66.2,53.2,29.70,ENE,74,0.0,0.0,63,0.00,,---,0.00,VWS V14.01,2013-09-10 06:27:00,
2013-09-09 23:32:00,66.0,53.1,29.70,ENE,74,0.0,0.0,63,0.00,,---,0.00,VWS V14.01,2013-09-10 06:32:00,
2013-09-09 23:37:00,65.9,53.0,29.70,ENE,74,0.0,0.0,63,0.00,,---,0.00,VWS V14.01,2013-09-10 06:37:00,
2013-09-09 23:42:00,65.8,52.9,29.70,ENE,74,0.0,0.0,63,0.00,,---,0.00,VWS V14.01,2013-09-10 06:42:00,
2013-09-09 23:47:00,65.6,52.7,29.70,ENE,74,0.0,0.0,63,0.00,,---,0.00,VWS V14.01,2013-09-10 06:47:00,
2013-09-09 23:52:00,65.6,52.7,29.70,ENE,74,0.0,0.0,63,0.00,,---,0.00,VWS V14.01,2013-09-10 06:52:00,
2013-09-09 23:57:00,65.5,52.6,29.70,ENE,74,0.0,0.0,63,0.00,,---,0.00,VWS V14.01,2013-09-10 06:57:00,